STARLINK-35787, 66978

Orbit data source: Space-Track

STARLINK-35787, 66978 is a payload satellite owned by SpaceX/Seattle (US) in LEO that was launched on Mon, 08 Dec 2025 UTC via an FALCON 9 launch vehicle from the Air Force Eastern Test Range (AFETR). Payload-class satellites include a variety of spacecraft equipped with specific instruments for various scientific and technological missions. These include communications satellites like Starlink; space stations such as the ISS; scientific satellites like the Hubble; Earth observation satellites from companies like Planet Labs, Umbra, and HawkEye 360; GPS; miniature CubeSats for education and research; and military/defense satellites.

Loading next visibility...
Identifier
66978, 2025-288V
Orbit
LEO
Country
Flag of USUS
Related business
Manufacturer
SpaceX/Seattle
Mission
Operational Commercial Communications
Bus & Motor
STARLINK V2MO, Unknown motor
Mass
575 kg wet, ~530 kg dry
Launch date (UTC)
2025-12-08 (7 months ago)
Launch vehicle
FALCON 9
Launch site
Air Force Eastern Test Range (AFETR)
Object type
Payload
Rocket body
Debris
Shape & HBR
Box + 2 Pan, 17.7 m
Radar Cross Section
36.964 m², Large (>1 m²)

Expand to show TLE details & history
Last TLE update: 11 hours ago

TLE from 11 hours ago
0 STARLINK-35787
1 66978U 25288V   26177.57760625  .00019397  00000-0  71212-3 0  9997
2 66978  43.0015 128.2362 0002008 268.9005  91.1617 15.27599686 31945
Epoch: 2026-06-26T13:51Z
TLE epoch observation values (Epoch: 2026-06-26T13:51:45.179Z)
Latitude
0.00003°
Longitude
5.59387°
Altitude
482.794 km
Speed
7.626 km/s
True Right ascension
08h 32m 56s
True Declination
0° 00' 00"
Sunlit
Object was in daylight at epoch
Visualization orbit readout
Latitude
Unknown
Longitude
Unknown
Altitude
Unknown
Speed
Unknown
Apparent Right ascension
Unknown
Apparent Declination
Unknown
Sunlit
N/A
Visualization observer readout
Local Sidereal Time
12:12:29
Azimuth
Unknown
Elevation
Unknown
Doppler factor
Unknown
Orbital elements
Apogee altitude
486.313 km
Perigee altitude
483.557 km
Semi-major axis
6,863.072 km
Eccentricity
0.0002
Inclination
43.0015°
RAAN
128.2362°
Arg. of periapsis
268.9005°
True anomaly
91.18471°
Mean anomaly
91.1617°
Eccentric anomaly
91.1732°
Mean motion
3.81738 °/min
Orbital period
94.31 mins
BSTAR
0.00071212
Loading maneuver chart data...
Computing Atmospheric mass density...
Loading historical data...
Loading historical data...
Loading historical data...
Loading historical data...
Loading historical data...
Loading historical data...
Loading historical data...

Documentation

Showing up to 5 results
|